Location: Seminole
(32.7190°N, 102.6440°W)
Time: 00:24:18
(UTC-05:00)

Meteor 2-10 - Visible Passes

Search period start: 01 June 2016 00:00
Search period end: 11 June 2016 00:00
Orbit: 738 x 870 km, 81.2° (Epoch: 31 May)

Date Brightness Start Highest point End Pass type
(mag) Time Alt. Az. Time Alt. Az. Time Alt. Az.
01 Jun 5.0 02:56:38 10° N 03:01:05 45° NE 03:01:05 45° NE visible
01 Jun 6.0 04:40:04 10° NW 04:42:04 15° WNW 04:42:04 15° WNW visible
02 Jun 5.6 02:30:58 10° NNE 02:35:03 30° ENE 02:35:03 30° ENE visible
02 Jun 5.6 04:13:09 10° NW 04:16:03 22° WNW 04:16:03 22° WNW visible
03 Jun 6.1 02:05:34 10° NNE 02:09:03 21° ENE 02:09:03 21° ENE visible
03 Jun 5.3 03:46:38 10° NNW 03:50:03 31° WNW 03:50:03 31° WNW visible
04 Jun 6.5 01:40:38 10° NE 01:43:05 14° ENE 01:43:05 14° ENE visible
04 Jun 5.0 03:20:21 10° NNW 03:24:05 42° NW 03:24:05 42° NW visible
05 Jun 4.9 02:54:15 10° N 02:58:08 49° N 02:58:08 49° N visible
06 Jun 5.1 02:28:18 10° N 02:32:11 45° NNE 02:32:11 45° NNE visible
06 Jun 6.4 04:12:52 10° WNW 04:13:12 11° WNW 04:13:12 11° WNW visible
07 Jun 5.4 02:02:30 10° N 02:06:17 35° NE 02:06:17 35° NE visible
07 Jun 6.1 03:45:25 10° NW 03:47:17 16° WNW 03:47:17 16° WNW visible
08 Jun 5.8 01:36:55 10° NNE 01:40:23 26° NE 01:40:23 26° NE visible
08 Jun 5.8 03:18:43 10° NNW 03:21:23 23° WNW 03:21:23 23° WNW visible
09 Jun 6.2 01:11:37 10° NNE 01:14:30 18° ENE 01:14:30 18° ENE visible
09 Jun 5.5 02:52:17 10° NNW 02:55:30 32° NW 02:55:30 32° NW visible
10 Jun 6.5 00:47:00 10° NE 00:48:38 12° ENE 00:48:38 12° ENE visible
10 Jun 5.2 02:26:05 10° NNW 02:29:38 40° NNW 02:29:38 40° NNW visible
